Location: Ahausen
(50.4985°N, 8.2722°E)
Time: 10:45:28
(UTC+00:00)

KKS-1 - Visible Passes

Search period start: 29 June 2022 00:00
Search period end: 09 July 2022 00:00
Orbit: 636 x 647 km, 98.2° (Epoch: 28 June)

Date Brightness Start Highest point End Pass type
(mag) Time Alt. Az. Time Alt. Az. Time Alt. Az.
29 Jun ? 20:57:18 10° NNE 21:01:24 34° E 21:05:03 12° SSE visible
29 Jun ? 22:33:52 10° N 22:37:53 33° WNW 22:41:51 10° SW visible
30 Jun ? 21:21:04 10° NNE 21:25:30 56° E 21:29:17 14° S visible
30 Jun ? 22:58:17 10° N 23:01:40 21° WNW 23:05:02 10° WSW visible
01 Jul ? 21:45:01 10° NNE 21:49:31 88° WNW 21:53:33 13° SSW visible
01 Jul ? 23:23:01 10° NNW 23:25:23 14° NW 23:27:44 10° W visible
02 Jul ? 20:33:16 10° NE 20:36:39 21° E 20:39:59 10° SE visible
02 Jul ? 22:09:05 10° N 22:13:28 53° WNW 22:17:47 10° SW visible
03 Jul ? 20:56:46 10° NNE 21:00:50 33° E 21:04:23 13° SSE visible
03 Jul ? 22:33:19 10° N 22:37:20 33° WNW 22:41:20 10° SW visible
04 Jul ? 21:20:31 10° NNE 21:24:56 55° E 21:28:38 14° S visible
04 Jul ? 22:57:42 10° N 23:01:07 22° WNW 23:04:31 10° WSW visible
05 Jul ? 21:44:27 10° NNE 21:48:58 89° WNW 21:52:52 14° SSW visible
05 Jul ? 23:22:24 10° NNW 23:24:50 14° NW 23:27:14 10° W visible
06 Jul ? 20:32:44 10° NE 20:36:03 20° E 20:39:21 10° SE visible
06 Jul ? 22:08:31 10° N 22:12:54 54° WNW 22:17:05 11° SW visible
07 Jul ? 20:56:13 10° NNE 21:00:15 32° E 21:03:41 13° SSE visible
07 Jul ? 22:32:44 10° N 22:36:46 34° WNW 22:40:47 10° SW visible
08 Jul ? 21:19:58 10° NNE 21:24:22 53° E 21:27:55 15° S visible
08 Jul ? 22:57:06 10° N 23:00:33 22° WNW 23:03:59 10° WSW visible
